Weather in Zavyalovka

Russia / Orenburg Oblast     53°35′42″N   52°34′17″E
temp.,
°C
wind,
m/s
gust,
m/s
humid.,
%
clouds,
%
prec.,
mm/h
press.,
hPa
HPBL,
m
3 march, wed
wed323:00−2sw71396100 2.1 1003615
02:00−2wsw4997100 0.6 1002318
05:00−3wsw3598100 0.8 1002141
08:00−3w2396100 0.0 100143
11:00−4w3596100 0.0 1002217
14:00−3w4596100 0.0 1002374
17:00−3w5793100 0.1 1003568
20:00−5wnw51092100 0.2 1004377
4 march, thu
thu423:00−7w6129599 0.3 1006464
02:00−11w489695 0.1 1006132
05:00−11wsw489693 0.1 1007177
08:00−13wsw599792 0.0 1007169
11:00−9sw7129496 0.1 1006381
14:00−6sw8129399 0.1 1005565
17:00−5sw91592100 0.3 1003829
20:00−2sw101695100 0.9 1001922
5 march, fri
fri523:000wsw101597100 1.9 1002902
02:000wsw91596100 1.3 1002834
05:00−1sw71496100 2.1 1002690
08:00−2sw71396100 1.3 1002647
11:00−1sw71297100 3.1 1002723
14:000sw713100100 1.3 1000745
17:00+1wsw91699100 2.8 1000809
20:00−1wnw81387100 0.4 1003644
6 march, sat
sat623:00−8wnw469491 0.4 1008113
02:00−12nw239389 0.0 101129
05:00−15nnw118994 0.0 101320
08:00−14ne1290100 0.0 101320
11:00−11ne2489100 0.0 1012205
14:00−9ne3489100 0.0 1011331
17:00−9nne3589100 0.0 1010341
20:00−12n2393100 0.0 101121
7 march, sun
sun723:00−16nnw229367 0.0 101220
02:00−18wnw12950 0.0 101220
05:00−18wsw12929 0.0 101320
08:00−17wsw229674 0.0 101423
11:00−14wsw249478 0.1 1015223
14:00−11w3492100 0.1 1016379
17:00−12sw359182 0.1 1015274
20:00−14s499134 0.0 1014141